Weather History for Guthrie, OK

Change the Weather History Date:

Wednesday, April 16, 2014

  Actual Average Record
Temperature  
Mean Temperature 59 °F -  
Max Temperature 71 °F 76 °F 91 °F (2006)
Min Temperature 48 °F 50 °F 30 °F (1953)
Degree Days  
Heating Degree Days 6    
Growing Degree Days 9 (Base 50)    
Moisture  
Dew Point 28 °F    
Average Humidity 33    
Maximum Humidity 44    
Minimum Humidity 21    
Precipitation  
Precipitation 0.00 in - - ()
Sea Level Pressure  
Sea Level Pressure 29.95 in    
Wind  
Wind Speed 17 mph (South)    
Max Wind Speed 29 mph    
Max Gust Speed 41 mph    
Visibility 10 miles    
Events      
Averages and records for this station are not official NWS values.
T = Trace of Precipitation, MM = Missing Value Source: NWS Daily Summary

Daily Weather History Graph

Daily Weather History Graph

Search for Another Location

Airport:

Trip Planner

Search our weather history database for the weather conditions in past years. The results will help you decide how hot, cold, wet, or windy it might be!

Date:

Astronomy

Apr. 16, 2014 Rise Set
Actual Time 6:55 AM CDT 8:04 PM CDT
Civil Twilight 6:28 AM CDT 8:30 PM CDT
Nautical Twilight 5:57 AM CDT 9:02 PM CDT
Astronomical Twilight 5:24 AM CDT 9:34 PM CDT
Moon 9:46 PM CDT (4/16) 7:45 AM CDT (4/16)
Length of Visible Light 14h 01m
Length of Day
13h 08m
Full, 98% of the Moon is Illuminated
Apr 16
Full
Apr 22
Last Quarter
Apr 29
New
May 6
First Quarter
May 14
Full

Hourly Weather History & Observations

Time (CDT) Temp. Dew Point Humidity Pressure Visibility Wind Dir Wind Speed Gust Speed Precip Events Conditions
12:53 AM 52.0 °F 23.0 °F 32% 30.00 in 10.0 mi South 17.3 mph 24.2 mph N/A   Clear
1:53 AM 51.1 °F 23.0 °F 33% 29.99 in 10.0 mi South 12.7 mph - N/A   Clear
2:53 AM 51.1 °F 23.0 °F 33% 29.97 in 10.0 mi South 16.1 mph 23.0 mph N/A   Clear
3:53 AM 50.0 °F 25.0 °F 38% 29.96 in 10.0 mi South 13.8 mph - N/A   Clear
4:53 AM 50.0 °F 26.1 °F 39% 29.96 in 10.0 mi South 15.0 mph 27.6 mph N/A   Clear
5:53 AM 48.9 °F 27.0 °F 43% 29.95 in 10.0 mi South 20.7 mph 28.8 mph N/A   Clear
6:53 AM 48.9 °F 27.0 °F 43% 29.95 in 10.0 mi South 17.3 mph 27.6 mph N/A   Clear
7:53 AM 50.0 °F 27.0 °F 41% 29.96 in 10.0 mi South 23.0 mph 28.8 mph N/A   Clear
8:53 AM 53.1 °F 27.0 °F 37% 29.95 in 10.0 mi South 25.3 mph 41.4 mph N/A   Clear
9:53 AM 55.9 °F 28.0 °F 34% 29.96 in 10.0 mi South 25.3 mph 36.8 mph N/A   Clear
10:53 AM 61.0 °F 26.1 °F 26% 29.94 in 10.0 mi South 27.6 mph 41.4 mph N/A   Clear
11:53 AM 62.1 °F 27.0 °F 26% 29.94 in 10.0 mi South 28.8 mph 41.4 mph N/A   Clear
1:53 PM 66.9 °F 27.0 °F 22% 29.91 in 10.0 mi South 18.4 mph 28.8 mph N/A   Clear
2:53 PM 69.1 °F 28.0 °F 22% 29.89 in 10.0 mi South 17.3 mph 29.9 mph N/A   Clear
3:53 PM 70.0 °F 28.0 °F 21% 29.89 in 10.0 mi SSW 17.3 mph 26.5 mph N/A   Clear
4:53 PM 70.0 °F 30.0 °F 23% 29.87 in 10.0 mi South 18.4 mph 25.3 mph N/A   Clear
5:53 PM 69.1 °F 30.9 °F 24% 29.89 in 10.0 mi South 16.1 mph - N/A   Clear
6:53 PM 66.0 °F 30.9 °F 27% 29.91 in 10.0 mi South 12.7 mph 23.0 mph N/A   Clear
7:53 PM 64.0 °F 32.0 °F 30% 29.93 in 10.0 mi SSE 9.2 mph - N/A   Clear
8:53 PM 60.1 °F 33.1 °F 36% 29.95 in 10.0 mi SSE 8.1 mph - N/A   Clear
9:53 PM 59.0 °F 33.1 °F 38% 29.98 in 10.0 mi SSE 12.7 mph 18.4 mph N/A   Clear
10:53 PM 57.0 °F 34.0 °F 42% 29.99 in 10.0 mi SSE 9.2 mph - N/A   Clear
11:53 PM 55.9 °F 34.0 °F 44% 30.00 in 10.0 mi SSE 12.7 mph - N/A   Clear